FW7734 Weather Reports


time (UTC)temp
F
wind
direction
speed
knots
gust
knots
rain 1hr
in
rain 24hr
in
rain mn
in
humidity
%
barometer
mb
20260510044939 45 78 0.0 0.0 0.00 0.00 0.00 99 1012.7
20260510044436 45 75 0.0 0.0 0.00 0.00 0.00 99 1012.6
20260510043932 44 52 0.9 0.9 0.00 0.00 0.00 99 1012.7
20260510043428 44 355 2.6 2.6 0.00 0.00 0.00 99 1012.5
20260510042927 43 26 0.0 0.0 0.00 0.00 0.00 99 1011.9
20260510042422 44 35 0.0 0.0 0.00 0.00 0.00 99 1011.8
20260510041918 44 80 0.0 0.0 0.00 0.00 0.00 99 1011.9
20260510041416 44 83 0.0 0.0 0.00 0.00 0.00 99 1012.1
20260510040913 44 96 0.0 0.0 0.00 0.00 0.00 99 1011.8
20260510040410 44 96 0.0 0.0 0.00 0.00 0.00 99 1011.7
20260510035905 44 88 0.0 0.0 0.00 0.89 0.89 99 1011.7
20260510035402 44 89 0.0 0.0 0.00 0.89 0.89 99 1011.8
20260510034856 44 88 0.9 0.9 0.00 0.89 0.89 99 1011.7
20260510034356 44 69 0.0 0.9 0.00 0.89 0.89 99 1011.7
20260510033851 44 45 0.9 1.7 0.00 0.89 0.89 99 1011.5
20260510033348 44 37 0.9 1.7 0.00 0.89 0.89 99 1011.4
20260510032844 44 74 0.0 0.0 0.00 0.89 0.89 99 1011.5
20260510032341 44 24 2.6 2.6 0.00 0.89 0.89 99 1011.1
20260510031837 44 84 0.0 0.0 0.00 0.89 0.89 99 1011.1
20260510031332 44 66 0.9 0.9 0.00 0.89 0.89 99 1010.8
20260510030827 44 76 0.0 0.0 0.00 0.89 0.89 99 1011.0
20260510030323 44 84 0.0 0.0 0.00 0.89 0.89 99 1011.2
20260510025820 44 90 0.0 0.0 0.00 0.89 0.89 99 1011.3
20260510025318 44 97 0.0 0.0 0.00 0.89 0.89 99 1011.4
20260510024815 44 137 0.9 0.9 0.00 0.89 0.89 99 1011.1
20260510024312 45 78 1.7 2.6 0.00 0.89 0.89 99 1011.3
20260510023808 45 89 0.9 0.9 0.00 0.89 0.89 99 1011.2
20260510023304 44 83 0.0 0.0 0.00 0.89 0.89 99 1011.1
20260510022801 45 80 0.0 0.0 0.00 0.89 0.89 99 1011.1
20260510022301 45 72 0.9 1.7 0.00 0.89 0.89 99 1011.1
20260510021800 45 56 0.9 0.9 0.00 0.89 0.89 99 1011.0
20260510021258 45 81 0.9 0.9 0.00 0.89 0.89 99 1011.0
20260510020754 46 93 0.0 0.0 0.00 0.89 0.89 99 1011.0
20260510020254 45 66 1.7 1.7 0.00 0.89 0.89 99 1011.1
20260510015750 45 87 0.0 0.0 0.00 0.89 0.89 99 1011.1
20260510015247 46 84 0.0 0.9 0.00 0.89 0.89 99 1011.0
20260510014741 46 81 0.0 0.9 0.00 0.89 0.89 99 1011.1
20260510014239 46 79 0.0 0.9 0.00 0.89 0.89 99 1010.6
20260510013735 46 70 0.9 1.7 0.00 0.89 0.89 99 1010.7
20260510013230 46 93 0.0 0.0 0.00 0.89 0.89 99 1010.8
20260510012725 47 93 0.0 0.0 0.00 0.89 0.89 99 1010.7
20260510012221 47 87 0.0 0.0 0.00 0.89 0.89 99 1011.1
20260510011720 47 89 0.0 0.0 0.00 0.89 0.89 99 1010.8
20260510011216 47 91 0.0 0.0 0.00 0.89 0.89 99 1010.5
20260510010713 48 91 0.0 0.0 0.00 0.89 0.89 99 1010.7
20260510010210 49 91 0.0 0.0 0.00 0.89 0.89 99 1010.6
20260510005706 49 83 0.9 0.9 0.00 0.89 0.89 99 1010.8
20260510005203 49 87 0.0 0.0 0.00 0.89 0.89 99 1010.4
20260510004702 50 82 0.0 0.9 0.00 0.89 0.89 98 1010.3
20260510004159 50 94 0.9 1.7 0.00 0.89 0.89 99 1010.3
20260510003656 51 98 0.0 0.0 0.00 0.89 0.89 99 1010.0
20260510003152 51 94 0.9 0.9 0.00 0.89 0.89 99 1009.9
20260510002651 51 104 0.9 0.9 0.00 0.89 0.89 98 1010.2
20260510002149 51 108 0.9 1.7 0.00 0.89 0.89 98 1010.3
20260510001646 51 97 0.0 0.0 0.00 0.89 0.89 98 1010.1
20260510001145 51 100 0.0 0.9 0.00 0.89 0.89 98 1010.5
20260510000644 52 95 0.0 0.9 0.00 0.89 0.89 98 1010.1
20260510000143 53 93 0.9 0.9 0.00 0.89 0.89 97 1009.9
20260509235639 53 92 0.9 0.9 0.00 0.89 0.89 97 1010.0
20260509235135 53 95 0.9 1.7 0.00 0.89 0.89 97 1009.8
20260509234631 53 106 2.6 2.6 0.00 0.89 0.89 97 1009.7
20260509234129 53 95 0.0 0.0 0.00 0.89 0.89 96 1009.8
20260509233626 54 109 0.9 0.9 0.00 0.89 0.89 96 1009.4
20260509233124 54 121 1.7 1.7 0.00 0.89 0.89 96 1009.7
20260509232620 54 97 0.9 0.9 0.00 0.89 0.89 96 1009.3
20260509232117 54 108 0.9 1.7 0.00 0.89 0.89 95 1009.5
20260509231613 55 122 0.9 1.7 0.00 0.89 0.89 95 1009.5
20260509231111 55 104 1.7 1.7 0.00 0.89 0.89 95 1009.5
20260509230608 55 111 1.7 1.7 0.00 0.89 0.89 96 1009.5
20260509230105 54 95 0.0 0.0 0.00 0.89 0.89 96 1010.0
20260509225601 53 142 2.6 2.6 0.00 0.89 0.89 96 1009.7
20260509225056 53 101 0.9 0.9 0.00 0.89 0.89 96 1009.8
20260509224552 53 108 0.0 0.9 0.00 0.89 0.89 96 1009.8
20260509224049 53 94 0.0 0.9 0.00 0.89 0.89 97 1009.5
20260509223546 54 132 0.9 0.9 0.00 0.89 0.89 97 1009.6
20260509223044 54 150 0.9 1.7 0.00 0.89 0.89 97 1009.6
20260509222539 54 142 2.6 2.6 0.00 0.89 0.89 97 1009.4
20260509222036 54 117 0.0 0.9 0.00 0.89 0.89 98 1009.4
20260509221531 53 171 1.7 1.7 0.00 0.89 0.89 98 1009.5
20260509221027 53 119 0.9 1.7 0.00 0.89 0.89 98 1009.7
20260509220523 53 118 1.7 1.7 0.00 0.89 0.89 98 1009.5
20260509220020 53 198 1.7 1.7 0.00 0.89 0.89 98 1009.6
20260509215515 53 110 2.6 2.6 0.00 0.89 0.89 99 1009.8
20260509215012 53 184 2.6 2.6 0.00 0.89 0.89 99 1009.8
20260509214510 52 138 2.6 2.6 0.00 0.89 0.89 99 1009.8
20260509214007 52 159 1.7 1.7 0.00 0.89 0.89 99 1010.0
20260509213502 52 143 2.6 2.6 0.00 0.89 0.89 99 1010.1
20260509212959 51 118 0.9 1.7 0.00 0.89 0.89 99 1010.2
20260509212457 51 107 2.6 2.6 0.00 0.89 0.89 99 1010.1
20260509211953 51 94 2.6 4.3 0.00 0.89 0.89 99 1010.2
20260509211449 51 128 1.7 2.6 0.00 0.89 0.89 99 1010.2
20260509210946 51 127 2.6 4.3 0.00 0.89 0.89 99 1010.4
20260509210443 51 173 2.6 4.3 0.00 0.89 0.89 99 1010.4
20260509205938 51 196 1.7 2.6 0.00 0.89 0.89 99 1010.3
20260509205433 51 114 2.6 2.6 0.00 0.89 0.89 99 1010.1
20260509204929 51 113 3.5 5.2 0.00 0.89 0.89 99 1010.1
20260509204425 52 143 1.7 2.6 0.07 0.89 0.89 99 1010.4
20260509203923 52 191 4.3 5.2 0.07 0.89 0.89 99 1010.3
20260509203418 51 104 1.7 1.7 0.00 0.88 0.88 99 1010.2
20260509202916 51 113 6.1 7.8 0.00 0.88 0.88 99 1010.5
20260509202411 52 196 2.6 4.3 0.00 0.88 0.88 99 1010.5
20260509201907 51 135 3.5 4.3 0.00 0.88 0.88 99 1010.5
20260509201402 51 92 2.6 2.6 0.00 0.88 0.88 99 1010.4
20260509200900 51 211 3.5 5.2 0.05 0.88 0.88 99 1010.5
20260509200359 51 115 2.6 2.6 0.05 0.88 0.88 99 1010.5
20260509195857 51 147 3.5 4.3 0.00 0.87 0.87 99 1010.6
20260509195356 51 126 3.5 5.2 0.00 0.87 0.87 99 1010.6
20260509194856 51 108 3.5 4.3 0.07 0.87 0.87 99 1010.7
20260509194353 51 124 2.6 2.6 0.12 0.87 0.87 99 1011.0
20260509193849 51 181 3.5 5.2 0.05 0.86 0.86 99 1010.8
20260509193344 51 154 1.7 1.7 0.00 0.85 0.85 99 1010.8
20260509192840 51 131 6.1 7.8 0.12 0.85 0.85 99 1011.1
20260509192336 51 141 6.1 7.0 0.05 0.84 0.84 99 1011.0
20260509191832 51 199 7.0 8.7 0.00 0.83 0.83 99 1010.8
20260509191328 51 147 4.3 5.2 0.00 0.83 0.83 99 1011.0
20260509190824 51 142 4.3 6.1 0.00 0.83 0.83 99 1011.0
20260509190321 51 118 4.3 5.2 0.00 0.83 0.83 99 1010.8
20260509185819 51 132 3.5 6.1 0.00 0.83 0.83 99 1010.8
20260509185314 51 184 6.1 7.0 0.07 0.83 0.83 99 1011.2
20260509184812 51 142 4.3 6.1 0.07 0.83 0.83 99 1011.2
20260509184310 51 153 5.2 6.1 0.05 0.82 0.82 99 1011.0
20260509183806 51 112 2.6 2.6 0.05 0.82 0.82 99 1011.3
20260509183301 51 219 2.6 5.2 0.00 0.81 0.81 99 1011.0
20260509182756 51 162 4.3 5.2 0.07 0.81 0.81 99 1011.1
20260509182254 51 151 3.5 4.3 0.07 0.81 0.81 99 1011.1
20260509181751 51 139 5.2 7.0 0.05 0.80 0.80 99 1010.7
20260509181249 51 123 6.1 7.8 0.12 0.80 0.80 99 1011.1
20260509180746 51 139 7.0 8.7 0.14 0.79 0.79 99 1011.1
20260509180242 51 124 5.2 6.1 0.12 0.78 0.78 99 1011.1
20260509175738 51 183 5.2 7.8 0.12 0.77 0.77 99 1011.0
20260509175235 51 108 1.7 1.7 0.12 0.76 0.76 99 1010.8
20260509174731 51 128 2.6 2.6 0.07 0.74 0.74 99 1010.8
20260509174226 51 145 4.3 6.1 0.12 0.74 0.74 99 1010.8
20260509173723 50 136 2.6 2.6 0.12 0.73 0.73 99 1010.8
20260509173219 50 109 4.3 5.2 0.07 0.72 0.72 99 1011.2
20260509172715 50 105 2.6 2.6 0.05 0.71 0.71 99 1011.0
20260509172211 50 179 0.9 1.7 0.12 0.71 0.71 99 1011.2
20260509171707 50 155 3.5 5.2 0.07 0.70 0.70 99 1010.8
20260509171203 50 154 2.6 4.3 0.05 0.69 0.69 99 1011.0
20260509170700 50 127 3.5 4.3 0.12 0.69 0.69 99 1010.8
20260509170156 50 96 0.9 0.9 0.12 0.68 0.68 99 1011.0
20260509165655 50 176 4.3 5.2 0.12 0.67 0.67 99 1011.0
20260509165150 50 105 1.7 1.7 0.14 0.66 0.66 99 1011.3
20260509164647 50 126 1.7 2.6 0.07 0.65 0.65 99 1011.4
20260509164142 50 129 2.6 2.6 0.00 0.64 0.64 99 1011.4
20260509163640 50 128 3.5 4.3 0.05 0.64 0.64 99 1011.3
20260509163136 50 151 1.7 1.7 0.00 0.63 0.63 99 1011.2
20260509162633 50 174 4.3 6.1 0.00 0.63 0.63 99 1011.2
20260509162129 50 116 0.9 0.9 0.00 0.63 0.63 99 1011.3
20260509161625 50 183 1.7 1.7 0.07 0.63 0.63 99 1011.4
20260509161120 50 197 4.3 5.2 0.07 0.63 0.63 99 1011.3
20260509160617 50 137 3.5 4.3 0.00 0.62 0.62 99 1011.4
20260509160112 50 139 0.9 1.7 0.05 0.62 0.62 99 1011.2
20260509155609 50 139 2.6 2.6 0.05 0.62 0.62 99 1011.2
20260509155105 50 143 3.5 4.3 0.07 0.61 0.61 99 1011.5
20260509154600 50 121 1.7 1.7 0.07 0.61 0.61 99 1011.6
20260509154058 50 153 2.6 5.2 0.05 0.60 0.60 99 1011.6
20260509153555 50 193 2.6 2.6 0.05 0.60 0.60 99 1011.8
20260509153052 50 112 0.0 0.9 0.07 0.59 0.59 99 1012.0
20260509152548 50 123 0.9 0.9 0.07 0.59 0.59 99 1011.9
20260509152045 50 142 0.9 0.9 0.05 0.58 0.58 99 1012.0
20260509151541 50 138 1.7 1.7 0.12 0.58 0.58 99 1012.2
20260509151039 50 107 0.0 0.9 0.07 0.57 0.57 99 1012.1
20260509150537 50 100 0.0 0.0 0.05 0.56 0.56 99 1012.1
20260509150035 49 101 0.0 0.9 0.12 0.56 0.56 99 1012.1
20260509145530 49 161 1.7 1.7 0.19 0.55 0.55 99 1012.2
20260509145025 49 137 0.9 1.7 0.12 0.54 0.54 99 1012.2
20260509144523 49 109 0.0 0.9 0.07 0.52 0.52 99 1012.3
20260509144020 50 111 0.0 0.9 0.19 0.52 0.52 99 1012.3
20260509143517 49 102 0.0 0.0 0.07 0.50 0.50 99 1012.4
20260509143015 49 116 0.9 1.7 0.05 0.49 0.49 99 1012.5
20260509142510 49 122 0.9 0.9 0.12 0.49 0.49 99 1012.3
20260509142005 49 121 1.7 1.7 0.12 0.48 0.48 99 1012.6
20260509141502 49 102 0.0 0.9 0.12 0.47 0.47 99 1012.3
20260509140959 49 183 2.6 2.6 0.12 0.46 0.46 99 1012.2
20260509140455 49 140 0.9 1.7 0.12 0.45 0.45 99 1012.4
20260509135954 49 124 0.9 1.7 0.12 0.44 0.44 99 1012.3
20260509135451 50 109 0.0 0.0 0.05 0.43 0.43 99 1012.1
20260509134948 49 104 0.0 0.0 0.07 0.42 0.42 99 1012.0
20260509134445 49 102 0.0 0.0 0.07 0.42 0.42 99 1012.0
20260509133943 49 122 0.9 0.9 0.00 0.41 0.41 99 1011.9
20260509133439 49 140 0.9 0.9 0.07 0.41 0.41 99 1012.0
20260509132937 49 119 0.9 0.9 0.07 0.41 0.41 99 1011.8
20260509132435 49 120 0.9 0.9 0.05 0.40 0.40 99 1011.8
20260509131932 49 131 0.9 1.7 0.05 0.40 0.40 99 1011.9
20260509131429 49 99 0.0 0.0 0.00 0.39 0.39 99 1011.8
20260509130926 48 99 0.0 0.0 0.07 0.39 0.39 99 1012.1
20260509130421 49 99 0.0 0.0 0.07 0.39 0.39 99 1012.1
20260509125918 48 107 0.0 0.0 0.00 0.38 0.38 99 1012.3
20260509125415 48 97 0.0 0.9 0.05 0.38 0.38 99 1012.0
20260509124911 48 92 0.0 0.0 0.05 0.38 0.38 99 1012.2
20260509124408 48 93 0.0 0.0 0.00 0.37 0.37 99 1012.1
20260509123906 48 77 0.9 0.9 0.07 0.37 0.37 99 1012.2
20260509123403 48 79 0.0 0.0 0.07 0.37 0.37 99 1012.2
20260509122858 48 56 0.9 0.9 0.00 0.36 0.36 99 1012.0
20260509122355 48 79 0.9 0.9 0.05 0.36 0.36 99 1012.2
20260509121852 48 89 0.0 0.0 0.05 0.36 0.36 99 1012.1
20260509121349 48 90 0.0 0.0 0.00 0.35 0.35 99 1012.2
20260509120848 48 90 0.0 0.0 0.00 0.35 0.35 99 1012.1
20260509120345 48 91 0.0 0.0 0.00 0.35 0.35 99 1012.1
20260509115843 48 93 0.0 0.0 0.00 0.35 0.35 99 1012.2
20260509115340 48 97 0.0 0.0 0.00 0.35 0.35 99 1012.3
20260509114838 47 97 0.0 0.0 0.00 0.35 0.35 99 1012.3
20260509114336 47 98 0.0 0.0 0.00 0.35 0.35 99 1012.4
20260509113835 47 101 0.0 0.0 0.00 0.35 0.35 99 1012.3
20260509113331 47 102 0.0 0.0 0.00 0.35 0.35 99 1012.2
20260509112828 47 112 0.9 1.7 0.07 0.35 0.35 99 1012.4
20260509112325 47 93 0.0 0.0 0.07 0.35 0.35 99 1012.3
20260509111822 47 86 0.0 0.0 0.00 0.34 0.34 99 1012.5
20260509111319 46 83 0.0 0.0 0.00 0.34 0.34 99 1012.5
20260509110817 46 83 0.0 0.0 0.00 0.34 0.34 99 1012.6
20260509110313 46 76 0.0 0.0 0.00 0.34 0.34 99 1012.5
20260509105811 46 84 0.0 0.0 0.00 0.34 0.34 99 1012.4
20260509105309 46 98 0.0 0.0 0.00 0.34 0.34 99 1012.5
20260509104805 46 85 0.0 0.0 0.05 0.34 0.34 99 1012.4
20260509104302 46 80 0.0 0.0 0.00 0.33 0.33 99 1012.7
20260509103800 46 78 0.0 0.0 0.07 0.33 0.33 99 1012.6
20260509103257 46 78 0.0 0.0 0.07 0.33 0.33 99 1012.5
20260509102756 46 88 0.0 0.0 0.00 0.32 0.32 99 1012.3
20260509102253 46 95 0.0 0.0 0.00 0.32 0.32 99 1012.4
20260509101749 46 99 0.0 0.0 0.00 0.32 0.32 99 1012.3
20260509101245 46 102 0.9 0.9 0.05 0.32 0.32 99 1012.3
20260509100743 46 98 0.0 0.0 0.05 0.32 0.32 99 1012.4
20260509100240 46 103 0.0 0.9 0.07 0.31 0.31 99 1012.6
20260509095736 46 94 0.0 0.9 0.07 0.31 0.31 99 1012.8
20260509095234 46 88 0.9 0.9 0.05 0.30 0.30 99 1012.7
20260509094731 46 95 0.0 0.9 0.14 0.29 0.29 99 1012.6
20260509094227 46 91 0.0 0.9 0.14 0.29 0.29 99 1012.5
20260509093725 46 89 0.0 0.0 0.05 0.27 0.27 99 1012.3
20260509093222 46 95 0.9 1.7 0.17 0.27 0.27 99 1012.3
20260509092721 46 98 0.9 0.9 0.19 0.26 0.26 99 1012.4
20260509092218 46 116 1.7 1.7 0.12 0.24 0.24 99 1012.6
20260509091716 46 129 0.9 0.9 0.12 0.23 0.23 99 1012.5
20260509091212 46 105 0.9 0.9 0.12 0.22 0.22 99 1012.3
20260509090710 46 110 0.9 1.7 0.12 0.21 0.21 99 1012.4
20260509090207 46 96 0.9 0.9 0.07 0.20 0.20 99 1012.4
20260509085705 45 131 0.9 1.7 0.00 0.19 0.19 99 1012.7
20260509085201 45 144 2.6 2.6 0.00 0.19 0.19 99 1012.7
20260509084658 46 95 0.0 0.0 0.00 0.19 0.19 99 1012.5
20260509084154 45 96 0.0 0.0 0.00 0.19 0.19 99 1012.3
20260509083653 45 99 0.0 0.0 0.05 0.19 0.19 99 1012.5
20260509083148 45 106 0.0 0.0 0.05 0.19 0.19 99 1012.5
20260509082646 45 100 0.0 0.0 0.00 0.18 0.18 99 1012.6
20260509082142 46 100 0.0 0.0 0.00 0.18 0.18 99 1012.8
20260509081639 46 101 0.0 0.0 0.07 0.18 0.18 99 1012.8
20260509081137 46 90 0.0 0.9 0.05 0.17 0.17 99 1012.9
20260509080635 46 93 0.9 0.9 0.05 0.17 0.17 99 1012.8
20260509080132 46 91 2.6 4.3 0.07 0.16 0.16 99 1013.3
20260509075630 45 91 0.9 0.9 0.07 0.16 0.16 99 1013.0
20260509075128 45 102 0.0 0.0 0.07 0.15 0.15 99 1013.1
20260509074624 45 102 0.0 0.0 0.07 0.15 0.15 99 1012.9
20260509074121 45 105 1.7 1.7 0.00 0.14 0.14 99 1013.1
20260509073618 46 100 0.0 0.0 0.05 0.14 0.14 99 1013.1
20260509073114 46 106 0.9 1.7 0.12 0.14 0.14 99 1013.1
20260509072611 45 99 1.7 2.6 0.07 0.13 0.13 99 1013.0
20260509072108 45 98 0.0 0.0 0.05 0.12 0.12 99 1013.4
20260509071604 45 97 0.0 0.0 0.07 0.11 0.11 99 1013.3
20260509071102 45 91 0.9 0.9 0.12 0.11 0.11 99 1013.2
20260509070559 45 93 1.7 1.7 0.05 0.10 0.10 99 1013.4
20260509070055 45 95 0.0 0.9 0.07 0.09 0.09 99 1013.4
20260509065550 45 102 0.0 0.9 0.12 0.09 0.09 99 1013.0
20260509065047 45 97 1.7 1.7 0.05 0.08 0.08 99 1013.0
20260509064544 45 99 0.9 0.9 0.07 0.07 0.07 99 1013.1
20260509064043 45 95 0.0 0.9 0.12 0.07 0.07 99 1013.3
20260509063537 44 96 0.0 0.9 0.05 0.06 0.06 99 1013.2
20260509063035 44 105 0.9 0.9 0.07 0.05 0.05 99 1013.4
20260509062532 44 121 1.7 1.7 0.07 0.05 0.05 99 1013.4
20260509062030 44 125 1.7 1.7 0.05 0.04 0.04 99 1013.3
20260509061526 44 85 0.0 0.0 0.05 0.04 0.04 99 1013.2
20260509061024 44 80 0.0 0.0 0.07 0.03 0.03 99 1012.9
20260509060521 44 80 0.0 0.0 0.07 0.03 0.03 99 1012.9
20260509060017 44 80 0.9 0.9 0.00 0.02 0.02 98 1013.2
20260509055512 44 86 0.9 0.9 0.00 0.02 0.02 98 1013.2
20260509055009 44 86 0.0 0.0 0.07 0.02 0.02 98 1013.1
20260509054505 44 82 0.0 0.0 0.07 0.02 0.02 98 1013.4
20260509054004 44 82 0.0 0.0 0.05 0.01 0.01 98 1013.3
20260509053502 44 77 0.9 0.9 0.05 0.01 0.01 98 1013.4
20260509052958 43 91 0.0 0.9 0.00 0.00 0.00 97 1013.4
20260509052456 43 92 0.0 0.0 0.00 0.00 0.00 97 1013.4
20260509051954 43 83 0.0 0.9 0.00 0.00 0.00 97 1013.6
20260509051451 43 64 0.0 0.0 0.00 0.00 0.00 97 1013.5
20260509050948 43 60 0.9 1.7 0.00 0.00 0.00 97 1013.5
20260509050445 43 62 1.7 2.6 0.00 0.00 0.00 97 1013.7
20260509045941 43 63 1.7 4.3 0.00 0.00 0.00 97 1013.3
20260509045439 43 60 0.9 0.9 0.00 0.00 0.00 97 1013.4